[[{"header":{"parameterUnit":"m.s-1","parameterCategory":1,"la1":30.2991,"la2":30.254,"lo1":-89.0895,"lo2":-89.0444,"dy":0.0017,"dx":0.0017,"nx":28,"ny":28,"refTime":"2025-07-18T21:00:00:Z","depth":0,"parameterNumber":2,"parameterNumberName":"U-component_of_WINDS"},"data":[0,0,0,0,0,0,0,0,0,0,0,0,0,0,0,0,0,0,0,0,0,0,0,0,0,0,0,0,0,0,0,0,0,0,0,0,0,0,0,0,0,0,0,0,0,0,0,0,0,0,0,0,0,0,0,0,0,0,1.266,1.2661,0,1.2762,1.2763,1.2764,1.2809,1.2808,1.2808,1.2808,1.2916,1.2919,1.2922,0,0,0,0,0,0,0,0,0,0,0,0,0,1.2508,1.251,1.266,1.2661,1.2663,1.2762,1.2763,1.2764,1.2809,1.2808,1.2808,1.2808,1.2915,1.2919,1.2922,0,0,0,0,0,0,0,0,0,0,0,0,0,1.2588,1.2511,1.266,1.2697,1.2701,1.2761,1.2763,1.2765,1.2809,1.2808,1.2808,1.2808,1.2914,1.2918,1.2923,1.2955,0,0,1.2936,1.2938,0,0,0,0,0,0,0,0,1.2584,1.2594,1.269,1.2694,1.2699,1.2772,1.2749,1.2829,1.2809,1.2768,1.2808,1.2808,1.2869,1.2877,1.2897,1.296,1.2965,1.2937,1.294,1.2942,1.2943,0,0,0,0,0,0,0,1.2578,1.259,1.27,1.2691,1.2697,1.2709,1.272,1.2764,1.2818,1.2771,1.2775,1.2786,1.2871,1.2892,1.2899,1.2967,1.2937,1.2941,1.2944,1.2945,1.3063,1.3063,0,0,0,0,0,0,1.2566,1.2585,1.2697,1.2703,1.2639,1.2712,1.2724,1.2749,1.2818,1.2828,1.2786,1.2788,1.2884,1.2894,1.2903,1.2946,1.2942,1.2946,1.2948,1.3062,1.3063,1.3063,0,0,0,0,0,0,1.2562,1.2576,1.2693,1.2645,1.2661,1.2715,1.2742,1.2751,1.2772,1.2829,1.2839,1.2797,1.2885,1.2897,1.2942,1.2951,1.2948,1.2952,1.3062,1.3063,1.3063,1.3032,0,0,0,0,0,0,1.2558,1.2574,1.2586,1.2645,1.2663,1.2729,1.2743,1.2753,1.2779,1.2782,1.2842,1.2852,1.2885,1.2935,1.2946,1.2957,1.2955,1.3061,1.3062,1.3063,1.3033,1.3032,1.3031,0,0,0,0,0,1.2552,1.2574,1.2586,1.26,1.2679,1.2729,1.274,1.2776,1.278,1.2793,1.283,1.285,1.2948,1.2939,1.2952,1.2964,1.3061,1.3062,1.3063,1.3033,1.3032,1.3031,0,0,0,0,0,0,1.2516,1.2582,1.2597,1.2638,1.2677,1.2736,1.2754,1.2774,1.2814,1.2815,1.286,1.2874,1.2915,1.2944,1.2933,1.3,1.3006,1.301,1.2979,1.2978,1.2977,1.297,1.2959,0,0,0,0,0,1.2513,1.2546,1.2603,1.2634,1.2653,1.27,1.2723,1.2748,1.2791,1.2808,1.2848,1.289,1.293,1.2956,1.2996,1.3037,1.3051,1.3052,1.3051,1.305,1.3053,1.3077,1.3078,1.3066,1.3066,1.3066,0,0,1.2506,1.2547,1.2566,1.2628,1.2661,1.2696,1.2714,1.275,1.2777,1.2814,1.2859,1.2889,1.2939,1.2982,1.3003,1.3008,1.3059,1.3051,1.305,1.3053,1.3078,1.3079,1.308,1.3067,1.3067,1.3067,0,0,1.2513,1.2546,1.2576,1.2609,1.2659,1.269,1.2697,1.2753,1.2775,1.282,1.2848,1.2881,1.295,1.2984,1.301,1.303,1.305,1.3042,1.3037,1.306,1.3061,1.3062,1.3069,1.3071,1.3044,1.3044,1.3044,0,1.2499,1.2552,1.2589,1.2624,1.265,1.2684,1.2715,1.2746,1.2807,1.2825,1.2829,1.2915,1.2951,1.3003,1.3007,1.3028,1.3038,1.3035,1.3057,1.3059,1.306,1.3068,1.307,1.3043,1.3043,1.3043,1.3043,0,1.2532,1.2569,1.2587,1.2643,1.2672,1.2705,1.2748,1.2773,1.2795,1.2826,1.2872,1.2916,1.2966,1.298,1.3003,1.3035,1.3037,1.3048,1.3056,1.3059,1.3067,1.307,1.3041,1.3041,1.3041,1.3042,0,0,1.2519,1.2596,1.2602,1.2628,1.2685,1.2715,1.2749,1.2796,1.2817,1.2858,1.2889,1.2945,1.2956,1.2986,1.3013,1.3033,1.3046,1.3043,1.3045,1.3042,1.3085,1.3076,1.3078,1.306,1.306,1.3061,1.3081,0,1.2534,1.2595,1.263,1.2678,1.2712,1.2745,1.2775,1.2814,1.2844,1.2879,1.2912,1.2952,1.2963,1.2982,1.3003,1.304,1.3055,1.3039,1.309,1.3091,1.3076,1.3082,1.3073,1.3089,1.3084,1.3085,1.3085,0,1.2559,1.2598,1.2649,1.2702,1.2718,1.2744,1.2791,1.2823,1.2868,1.2888,1.2921,1.2948,1.2987,1.299,1.3045,1.3033,1.3056,1.3077,1.3079,1.3085,1.3088,1.3089,1.3096,1.3098,1.309,1.309,1.3089,0,1.2544,1.261,1.2649,1.267,1.2734,1.2751,1.2779,1.2824,1.285,1.2891,1.2909,1.2954,1.2979,1.3013,1.3052,1.3051,1.3102,1.311,1.3121,1.312,1.3131,1.313,1.3141,1.3145,1.3145,1.3145,1.3145,0,1.2557,1.2587,1.2643,1.2667,1.2702,1.2742,1.2775,1.2806,1.2845,1.2877,1.2908,1.2937,1.2986,1.3021,1.3051,1.3092,1.3103,1.3121,1.3129,1.3119,1.3116,1.3135,1.3134,1.3146,1.3145,1.3145,1.3145,0,1.2546,1.2585,1.263,1.2686,1.2701,1.2724,1.2773,1.2798,1.2829,1.2868,1.288,1.2929,1.2972,1.3014,1.3072,1.3092,1.3133,1.3143,1.3117,1.3122,1.3131,1.313,1.3155,1.316,1.316,1.316,1.3159,0,1.2552,1.2576,1.2634,1.2657,1.2683,1.272,1.2746,1.2787,1.2813,1.2867,1.2886,1.2931,1.2969,1.3036,1.3078,1.3123,1.3134,1.314,1.3141,1.313,1.3135,1.3133,1.3136,1.3139,1.3139,1.3139,1.3139,0,1.2558,1.2576,1.2613,1.2656,1.2687,1.2723,1.2761,1.2778,1.2826,1.2855,1.2898,1.2928,1.2986,1.3031,1.308,1.311,1.3133,1.3138,1.3143,1.3133,1.3117,1.3126,1.3115,1.3137,1.3137,1.3138,1.3138,1.3138,1.2557,1.2579,1.2624,1.2664,1.2696,1.273,1.2757,1.2791,1.2828,1.2878,1.29,1.2944,1.2989,1.3057,1.3087,1.3123,1.3128,1.3135,1.3137,1.3139,1.3137,1.3111,1.3132,1.3132,1.3132,1.3132,1.3132,0,1.2564,1.2595,1.2631,1.2682,1.2714,1.2731,1.2773,1.2799,1.2837,1.2877,1.2913,1.2964,1.3007,1.3052,1.3098,1.3118,1.313,1.3129,1.3129,1.3135,1.3129,1.312,1.3119,1.3119,1.3119,1.3119,1.3119,1.3119,1.2572,1.2611,1.2635,1.2691,1.2721,1.2764,1.2786,1.2819,1.2851,1.2905,1.2941,1.2969,1.3012,1.3061,1.3102,1.3114,1.313,1.3126,1.3141,1.3135,1.3135,1.3136,1.3128,1.3129,1.3129,1.3145,1.3145,1.3145]},{"header":{"parameterUnit":"m.s-1","parameterCategory":1,"la1":30.2991,"la2":30.254,"lo1":-89.0895,"lo2":-89.0444,"dy":0.0017,"dx":0.0017,"nx":28,"ny":28,"refTime":"2025-07-18T21:00:00:Z","depth":0,"parameterNumber":3,"parameterNumberName":"V-component_of_WINDS"},"data":[0,0,0,0,0,0,0,0,0,0,0,0,0,0,0,0,0,0,0,0,0,0,0,0,0,0,0,0,0,0,0,0,0,0,0,0,0,0,0,0,0,0,0,0,0,0,0,0,0,0,0,0,0,0,0,0,0,0,4.211,4.211,0,4.2077,4.2076,4.2076,4.2075,4.2076,4.2076,4.2076,4.2036,4.2035,4.2033,0,0,0,0,0,0,0,0,0,0,0,0,0,4.2168,4.2167,4.211,4.211,4.2109,4.2077,4.2076,4.2076,4.2075,4.2076,4.2076,4.2077,4.2037,4.2035,4.2033,0,0,0,0,0,0,0,0,0,0,0,0,0,4.214,4.2167,4.211,4.2105,4.2104,4.2077,4.2076,4.2076,4.2075,4.2076,4.2076,4.2077,4.2037,4.2035,4.2033,4.2006,0,0,4.2026,4.2025,0,0,0,0,0,0,0,0,4.2141,4.2137,4.2106,4.2106,4.2105,4.2081,4.2082,4.2052,4.2075,4.2086,4.2076,4.2077,4.205,4.2047,4.2039,4.2004,4.2003,4.2026,4.2025,4.2024,4.2023,0,0,0,0,0,0,0,4.2143,4.2139,4.2097,4.2106,4.2105,4.2103,4.2099,4.2076,4.2065,4.2085,4.2085,4.2081,4.205,4.2041,4.2038,4.2002,4.2026,4.2024,4.2023,4.2022,4.1942,4.1941,0,0,0,0,0,0,4.2147,4.214,4.2098,4.2096,4.2125,4.2101,4.2098,4.2088,4.2065,4.2062,4.2081,4.2081,4.2045,4.2041,4.2037,4.2003,4.2024,4.2022,4.202,4.1943,4.1942,4.1941,0,0,0,0,0,0,4.2148,4.2143,4.2099,4.2118,4.2112,4.21,4.2089,4.2087,4.2078,4.2062,4.2059,4.2074,4.2045,4.204,4.2014,4.2002,4.2021,4.2019,4.1944,4.1943,4.1942,4.1936,0,0,0,0,0,0,4.215,4.2144,4.2135,4.2118,4.2111,4.2079,4.2088,4.2086,4.2075,4.2076,4.2055,4.2052,4.2045,4.2017,4.2012,4.1999,4.2017,4.1945,4.1943,4.1942,4.1937,4.1935,4.1933,0,0,0,0,0,4.2152,4.2133,4.2134,4.2129,4.21,4.2078,4.2074,4.2068,4.2074,4.2064,4.2053,4.2053,4.2004,4.2015,4.2008,4.1995,4.1946,4.1944,4.1942,4.1938,4.1935,4.1933,0,0,0,0,0,0,4.2147,4.2131,4.2132,4.2108,4.2095,4.2078,4.2065,4.2065,4.2048,4.2049,4.204,4.2035,4.201,4.2,4.2012,4.1967,4.1975,4.1972,4.1974,4.1972,4.1969,4.1972,4.2015,0,0,0,0,0,4.2144,4.2129,4.2115,4.2095,4.2088,4.2078,4.2068,4.2065,4.205,4.2043,4.2031,4.2015,4.1996,4.1983,4.1965,4.1936,4.1931,4.1923,4.1921,4.1919,4.1916,4.1899,4.1895,4.1935,4.1935,4.1935,0,0,4.2135,4.2125,4.2116,4.2094,4.2083,4.2066,4.2073,4.2055,4.2042,4.204,4.2015,4.2005,4.1987,4.1959,4.1946,4.195,4.1904,4.1917,4.1916,4.1914,4.1897,4.1893,4.189,4.1934,4.1934,4.1935,0,0,4.2112,4.2103,4.2085,4.2075,4.2059,4.2052,4.2048,4.2032,4.2025,4.2001,4.1999,4.1982,4.195,4.1936,4.1925,4.1896,4.1895,4.1891,4.1878,4.1862,4.1858,4.1856,4.1844,4.184,4.1888,4.1888,4.1888,0,4.2103,4.208,4.2075,4.2058,4.2047,4.2047,4.2027,4.2017,4.1995,4.1987,4.1992,4.1951,4.1938,4.1907,4.19,4.1892,4.1885,4.1892,4.186,4.1857,4.1854,4.1843,4.1839,4.1887,4.1887,4.1887,4.1887,0,4.2069,4.2052,4.2039,4.202,4.2009,4.199,4.1981,4.1969,4.1967,4.1959,4.1933,4.1918,4.1896,4.1889,4.1885,4.1856,4.1859,4.1862,4.187,4.185,4.1839,4.1835,4.1887,4.1887,4.1887,4.1887,0,0,4.2041,4.2021,4.2016,4.2007,4.1989,4.1975,4.1956,4.1937,4.1926,4.1911,4.1893,4.1866,4.1868,4.1856,4.1851,4.1836,4.1813,4.1841,4.184,4.1835,4.1779,4.1776,4.1771,4.1812,4.1812,4.1811,4.178,0,4.2015,4.1982,4.1978,4.1948,4.1932,4.1932,4.1914,4.1901,4.1893,4.1876,4.1866,4.1847,4.1853,4.1845,4.1831,4.1819,4.1801,4.1821,4.1794,4.1793,4.1798,4.1766,4.1763,4.1735,4.1776,4.1775,4.1775,0,4.198,4.1966,4.1935,4.192,4.1912,4.1897,4.1879,4.1864,4.1848,4.1843,4.1829,4.1826,4.1803,4.1813,4.1781,4.1795,4.1783,4.1776,4.1774,4.1771,4.1782,4.176,4.1726,4.1721,4.1768,4.1769,4.1769,0,4.1961,4.1934,4.1912,4.1905,4.1886,4.1875,4.1867,4.1852,4.184,4.1823,4.1815,4.1795,4.1784,4.1768,4.1758,4.1767,4.1727,4.1736,4.172,4.172,4.1711,4.1711,4.1673,4.1705,4.1705,4.1705,4.1705,0,4.1931,4.1912,4.1903,4.189,4.1868,4.1862,4.184,4.1832,4.1818,4.1801,4.1799,4.1783,4.1772,4.1754,4.1746,4.172,4.1715,4.1709,4.1707,4.1708,4.1709,4.17,4.1701,4.1704,4.1704,4.1705,4.1705,0,4.1906,4.19,4.1876,4.1861,4.1857,4.1841,4.1827,4.1813,4.1805,4.1784,4.1779,4.1766,4.1744,4.1734,4.1706,4.1701,4.1671,4.1671,4.1677,4.1676,4.166,4.1661,4.1614,4.1606,4.1645,4.1644,4.1644,0,4.1888,4.1873,4.1857,4.1847,4.1839,4.1822,4.181,4.1804,4.1792,4.1772,4.176,4.1738,4.1721,4.1686,4.1673,4.1651,4.165,4.1634,4.1646,4.1648,4.1648,4.1649,4.1646,4.1632,4.1632,4.1631,4.1631,0,4.1855,4.1852,4.1837,4.182,4.1807,4.1793,4.1779,4.177,4.1761,4.1747,4.1726,4.1713,4.1686,4.1664,4.1642,4.163,4.1628,4.1628,4.1623,4.1624,4.1627,4.1624,4.167,4.1628,4.1629,4.1629,4.1629,4.1629,4.1831,4.1818,4.1805,4.1788,4.1777,4.1764,4.175,4.1741,4.1724,4.1703,4.17,4.1677,4.166,4.163,4.1618,4.1599,4.1602,4.1595,4.1593,4.1591,4.159,4.1632,4.1595,4.1595,4.1595,4.1595,4.1595,0,4.1797,4.1789,4.1773,4.1755,4.1741,4.1743,4.1727,4.1715,4.1695,4.1681,4.1664,4.1639,4.1618,4.1603,4.1581,4.1568,4.1567,4.1563,4.1563,4.156,4.1589,4.1595,4.1564,4.1564,4.1564,4.1564,4.1564,4.1564,4.1778,4.1756,4.1751,4.1723,4.1714,4.1694,4.1685,4.1672,4.166,4.1633,4.1616,4.1608,4.1593,4.157,4.1549,4.1546,4.1537,4.1533,4.1528,4.1555,4.1558,4.1561,4.1567,4.1531,4.1531,4.1501,4.1501,4.1501]}]]